Wind_Speed
20 20 22 26 28 27 25 25 25 24 23 22 20 17 16 16 17 20 20 20 22 25 24 22 19 15 9 5 9 11 16 19 18 20 19 24 34 37 36 42 42 35 32 30 25 24 25 25 23 21 23 27 29 29 28 29 30 29 29 30 29 29 28 26 23 22 22 23 24 26 27 28 28 28 27 26 26 26 26 28 28 27 26 24 22 22 21
21 21 20 21 25 27 26 26 26 25 24 23 21 20 19 19 21 23 22 21 21 22 23 22 19 17 14 7 1 8 14 18 20 21 20 20 24 26 27 33 40 41 41 40 36 32 30 28 25 22 23 26 27 27 28 30 31 29 29 30 29 28 27 24 23 22 22 22 23 24 26 27 27 27 27 26 26 26 26 26 27 27 27 25 23 22 21
20 21 20 19 21 23 26 28 29 26 23 22 22 22 21 20 22 25 24 23 22 22 24 26 23 19 16 13 9 5 11 15 19 23 24 24 23 21 21 27 39 46 46 44 42 38 35 34 31 28 28 29 29 27 26 27 30 30 29 30 30 29 26 24 24 24 23 23 23 23 24 24 25 26 26 26 26 26 26 26 27 27 28 27 24 23 22
21 20 17 17 19 22 26 29 31 29 26 25 24 23 21 18 19 23 25 22 17 13 18 21 18 18 19 18 16 11 8 10 14 20 24 26 25 22 20 23 33 43 47 46 43 40 39 37 34 33 31 31 32 32 29 28 31 34 34 33 32 31 29 28 27 25 24 24 24 24 23 23 24 24 25 25 25 26 26 26 26 27 28 28 25 23 23
22 20 15 18 19 19 21 23 25 27 25 25 25 25 23 20 18 21 21 17 10 10 15 15 10 13 19 20 19 17 13 7 8 14 18 20 21 20 19 20 26 35 41 45 44 42 42 40 37 36 34 32 31 32 32 31 33 36 39 39 39 37 33 31 30 27 26 25 24 24 24 24 24 24 25 25 24 25 25 25 26 27 27 28 27 25 24
23 20 16 17 15 12 14 14 16 18 17 17 18 19 19 18 16 18 17 13 14 17 18 16 12 14 18 18 17 18 19 16 10 11 14 14 15 15 15 16 19 20 25 36 44 44 43 42 39 36 34 32 33 33 32 31 32 34 37 39 41 40 37 34 31 30 29 26 25 24 24 25 25 26 26 25 23 24 24 24 25 26 27 28 28 27 25
22 20 15 10 9 15 18 16 17 19 17 17 18 18 19 19 18 20 20 18 20 21 19 17 18 22 24 21 19 18 21 24 20 12 12 11 10 11 11 13 14 10 9 19 32 39 43 42 40 37 35 35 37 37 32 30 31 32 32 33 34 35 36 36 33 32 31 29 27 26 25 26 26 27 27 26 24 24 24 24 24 24 25 27 28 28 27
19 17 11 7 11 19 19 17 22 25 22 22 23 20 19 19 19 22 25 23 23 22 19 17 16 19 23 24 23 21 21 25 26 20 15 11 8 8 8 9 11 10 9 9 13 23 34 39 38 38 39 39 40 38 34 32 30 28 28 29 30 32 34 35 34 32 31 30 29 27 27 27 27 27 27 27 27 25 24 24 23 24 25 26 27 28 29
21 17 14 15 19 22 21 21 24 23 20 20 21 20 19 18 19 22 24 26 28 26 23 21 19 17 18 22 23 23 23 25 29 28 22 17 12 9 9 9 9 8 8 9 9 12 20 28 32 35 37 39 39 38 36 35 33 30 29 29 30 33 34 34 33 32 31 30 30 29 29 28 27 27 27 28 28 28 27 25 24 24 25 26 26 27 28
24 20 15 13 12 14 19 21 21 21 21 18 16 19 23 23 24 24 23 25 29 29 28 28 26 22 21 23 25 25 25 25 27 30 31 27 22 17 14 13 11 8 6 7 9 12 15 19 23 27 31 34 37 38 37 36 34 33 34 32 32 34 36 34 33 32 31 31 31 30 30 29 29 28 28 28 29 29 29 27 25 24 24 25 26 26 27
20 18 15 12 10 13 17 18 18 20 21 17 13 16 21 24 26 26 26 26 28 30 31 32 32 28 25 28 31 30 29 28 26 28 33 34 30 24 20 18 16 13 10 7 8 12 15 17 20 24 28 31 34 37 38 37 35 35 37 36 34 35 37 36 34 33 32 32 32 32 31 30 30 30 29 28 28 29 30 30 28 26 25 25 26 27 27
24 22 19 17 15 15 16 19 20 19 17 15 11 9 12 18 20 21 23 25 25 27 29 31 34 32 29 31 34 33 33 33 30 29 32 34 32 28 25 23 21 18 14 10 9 11 14 17 19 23 27 30 33 36 37 38 37 37 36 35 34 35 37 38 38 37 35 34 33 33 32 32 32 32 31 30 30 30 30 31 31 30 28 27 26 27 28
29 26 24 21 19 18 19 19 18 16 14 13 12 12 16 19 18 17 19 21 21 22 24 27 31 31 29 31 34 34 34 35 35 35 35 35 33 31 29 27 25 23 18 14 12 12 15 18 20 22 25 29 34 37 38 39 40 38 35 33 35 37 39 40 41 40 38 37 36 35 34 34 34 34 34 33 32 31 31 31 31 32 31 29 27 26 28
24 25 23 20 19 21 22 18 14 12 11 12 15 19 22 22 21 21 22 22 21 20 20 23 27 30 30 30 33 34 36 36 36 36 37 37 36 34 32 30 28 26 24 19 16 15 16 19 22 24 26 29 33 37 40 40 40 39 37 36 37 39 41 42 43 42 40 39 38 37 37 37 37 37 36 35 34 33 32 32 31 32 33 32 29 27 27
13 17 17 13 13 18 20 18 16 14 14 15 18 20 20 20 23 24 25 25 24 21 21 21 23 28 32 33 34 36 38 38 37 35 36 39 40 38 35 33 31 29 28 24 20 18 18 20 23 25 28 29 31 36 39 39 38 39 40 40 40 41 43 45 45 44 41 39 39 40 39 39 39 39 38 38 36 35 34 33 32 33 33 33 32 29 28
6 9 12 10 11 14 15 15 15 15 16 18 21 21 20 22 24 24 25 27 25 23 23 22 21 23 29 33 36 38 40 41 40 37 35 36 38 39 37 34 33 33 31 29 26 23 21 22 24 27 29 30 32 35 36 37 38 40 41 41 40 40 42 45 46 44 42 40 40 40 40 40 40 41 41 40 40 38 35 34 33 33 34 34 34 32 30
9 11 12 12 14 16 15 15 17 18 19 20 22 23 24 25 26 25 26 27 26 25 25 24 23 23 25 29 34 37 39 42 42 40 36 33 34 38 39 36 35 34 33 32 31 27 24 24 26 28 29 31 33 34 34 36 39 41 42 42 40 39 40 43 45 44 42 41 40 40 40 41 41 42 42 42 42 41 37 35 35 34 34 34 35 34 32
13 15 15 16 17 17 16 17 20 22 22 23 25 26 27 28 28 28 27 27 27 26 26 27 27 25 24 26 29 32 35 39 41 40 36 31 30 35 38 38 37 35 34 33 33 31 28 27 28 29 30 31 32 33 33 35 38 40 42 42 41 39 38 39 41 41 41 40 39 39 40 41 41 42 42 43 44 43 40 37 35 34 33 34 34 34 33
15 15 15 17 18 17 17 19 22 24 26 27 27 28 30 31 32 32 31 30 28 27 28 30 30 28 26 26 26 27 30 34 38 38 34 29 29 32 35 36 36 35 34 34 35 34 32 30 29 31 32 31 32 33 34 36 37 39 41 42 41 40 38 37 37 38 38 38 39 39 40 41 42 42 43 43 45 44 41 38 36 34 32 32 32 33 33
15 16 17 20 20 20 20 21 22 24 27 28 28 29 31 32 33 34 33 31 29 28 29 31 31 30 29 27 26 26 27 30 33 33 30 28 29 31 33 34 34 33 32 33 35 35 35 33 32 32 33 32 32 32 34 36 38 39 41 43 43 42 41 39 38 38 39 39 39 40 40 41 41 42 43 44 44 43 41 39 38 35 31 29 29 29 29
17 15 17 20 20 20 20 21 22 23 26 28 28 30 31 33 34 34 33 31 30 29 29 31 32 31 30 28 26 25 26 28 31 30 29 29 30 31 32 32 32 31 31 33 35 36 36 36 34 34 35 34 33 33 35 37 39 40 43 46 46 44 43 43 42 42 42 42 43 42 41 41 41 42 44 44 44 42 41 41 39 35 31 26 24 23 23
17 15 17 19 19 18 19 21 22 23 24 27 28 30 31 33 35 35 34 32 30 29 29 30 31 31 30 28 26 25 25 28 29 29 29 30 30 30 31 31 29 29 30 32 34 36 36 37 37 36 36 36 35 34 35 37 40 42 44 48 49 46 44 44 45 46 46 46 46 45 42 41 42 44 45 45 43 42 41 41 39 36 32 28 24 23 23
18 16 17 18 18 18 19 20 21 22 23 26 28 29 30 32 33 36 37 35 32 29 29 29 30 31 30 28 26 25 25 27 28 28 30 32 30 28 29 30 28 27 29 30 33 36 37 37 37 37 38 39 38 36 36 39 42 42 44 47 49 48 46 46 47 48 48 48 49 48 46 45 45 46 46 45 43 41 41 41 40 38 34 30 28 28 27
17 17 17 18 17 17 18 19 20 21 22 25 27 28 30 30 31 33 35 35 33 31 29 28 28 30 30 28 26 25 25 25 27 28 30 32 30 26 26 28 27 26 26 27 30 34 36 38 39 38 39 40 39 37 38 40 41 42 44 47 48 48 49 49 49 51 52 52 52 53 51 48 47 48 48 46 43 41 41 41 40 39 35 31 30 30 29
16 17 19 19 18 17 18 19 20 21 23 25 27 29 30 30 29 29 30 31 32 31 29 28 28 28 29 27 26 25 24 24 25 27 30 31 28 25 25 26 26 25 25 24 26 30 33 35 37 39 40 40 39 39 39 41 41 41 43 45 46 46 48 49 50 51 52 52 51 52 52 49 47 48 48 46 43 42 41 41 40 38 36 34 34 33 32
16 17 19 20 19 19 19 20 20 20 22 24 27 28 28 27 25 25 25 26 27 28 28 28 27 26 27 27 25 24 23 22 23 26 29 29 26 24 24 26 26 25 24 22 24 29 33 34 36 38 40 39 37 38 40 42 43 43 43 45 47 47 48 50 50 50 50 50 49 50 51 50 50 50 48 45 44 44 42 41 40 37 36 36 36 34 33
15 16 19 21 21 20 20 20 20 20 21 22 25 25 24 22 21 20 20 20 22 24 26 27 26 25 25 25 24 23 22 22 23 26 27 25 23 22 24 25 26 26 25 22 22 26 31 35 38 39 40 39 36 37 39 42 44 45 45 47 48 47 47 49 50 49 49 49 48 49 50 50 52 54 50 46 46 47 44 42 40 37 36 35 34 33 32
15 16 19 21 22 22 22 21 21 21 21 21 23 23 22 20 19 18 18 18 20 22 22 23 23 23 23 22 22 21 21 22 23 24 23 21 20 21 24 25 26 26 26 25 22 20 23 29 34 37 40 41 37 35 37 40 43 46 47 48 49 48 48 49 50 49 50 49 49 50 51 50 51 53 53 50 49 48 45 43 42 40 38 36 33 33 33
16 16 17 19 22 24 23 21 20 20 21 21 22 22 22 21 20 18 17 17 17 19 19 18 20 21 20 19 19 20 21 22 22 21 19 18 18 21 23 24 24 25 25 25 22 19 20 25 29 30 33 39 40 38 37 39 42 45 48 48 49 49 49 50 50 49 49 50 50 51 52 50 49 51 52 51 49 48 46 44 43 42 39 36 35 34 34
17 16 16 17 19 22 22 20 19 20 21 21 21 21 21 21 21 18 16 15 14 14 14 15 16 18 18 18 18 19 21 22 21 19 17 16 18 20 21 22 23 23 23 23 20 17 19 26 28 23 20 25 32 37 39 40 41 43 47 49 50 49 48 49 49 47 47 49 51 51 51 49 48 50 51 50 48 48 47 45 43 41 38 36 35 35 35
18 17 16 16 17 19 19 17 17 19 20 21 21 20 20 21 21 18 15 13 13 12 11 12 14 15 16 17 17 18 20 22 21 18 16 16 18 19 20 22 23 22 22 23 22 16 14 17 18 15 12 13 18 24 31 38 41 43 44 46 48 48 47 47 47 45 45 47 49 50 50 48 46 47 49 49 48 49 48 44 41 39 38 36 36 36 36
18 17 15 14 15 17 16 15 16 18 19 20 20 19 18 18 19 19 17 15 14 12 9 9 11 13 14 15 15 16 18 20 19 17 16 16 17 17 19 21 23 21 20 22 23 20 13 6 5 5 9 13 14 15 21 29 36 40 41 43 44 44 44 44 43 43 44 45 45 47 49 48 46 46 46 46 46 48 48 45 41 39 38 38 37 37 36
16 15 13 13 15 16 15 15 15 17 19 19 20 20 18 16 17 18 16 13 12 12 10 9 9 10 11 12 12 13 15 16 16 16 16 16 16 17 17 19 21 22 20 20 21 20 15 7 5 3 3 9 13 14 16 22 29 33 36 38 39 39 40 41 41 42 42 42 43 45 46 46 46 46 44 43 45 49 49 45 42 41 40 38 37 36 35
16 15 14 14 15 15 15 14 15 17 18 19 19 19 18 15 13 14 11 8 9 12 12 9 8 8 10 11 11 12 14 14 13 14 15 16 17 17 16 17 20 22 21 19 17 14 9 8 9 7 4 4 10 13 13 15 21 26 30 34 36 37 37 38 39 40 40 40 42 44 44 45 46 46 43 43 46 50 50 47 43 41 39 37 35 35 34
16 14 14 14 14 14 14 14 14 16 18 19 18 19 18 14 10 8 9 8 8 10 11 9 7 6 9 13 15 15 14 13 13 14 16 18 18 16 14 15 18 22 22 19 15 9 4 4 9 11 10 7 10 12 10 9 12 15 19 25 31 33 35 35 36 38 39 40 41 43 43 44 46 45 43 43 47 49 48 45 41 38 36 36 35 34 34
15 13 13 13 12 13 13 13 13 15 17 18 18 19 18 15 10 6 7 9 9 10 11 8 4 4 7 12 15 16 14 12 12 14 17 19 18 15 12 12 15 20 24 22 18 13 9 4 4 9 10 7 8 11 12 11 9 7 7 9 14 20 26 30 31 31 33 34 36 39 40 40 42 43 42 42 47 49 45 40 37 36 35 35 35 34 33
16 12 11 11 10 11 14 15 13 14 16 17 17 18 18 17 12 6 4 7 6 6 8 7 6 7 8 9 11 13 13 12 11 12 15 17 16 14 12 11 12 15 20 21 20 18 16 10 1 6 9 8 6 7 11 13 10 6 6 7 9 10 14 18 20 24 29 32 32 33 34 34 36 40 40 40 42 44 42 36 34 34 34 34 33 32 31
17 13 10 8 9 11 14 16 15 14 15 16 16 16 17 17 15 9 2 6 8 7 7 9 12 14 12 8 7 10 11 12 13 14 16 17 16 14 12 11 11 12 13 14 14 15 17 16 11 4 3 8 8 7 8 11 12 9 8 8 8 8 9 9 10 13 22 29 31 31 31 32 33 35 38 39 39 39 38 36 34 33 32 31 30 28 27
17 13 8 6 8 10 13 16 17 15 15 16 16 16 16 16 16 13 6 4 7 7 7 9 11 13 11 8 6 8 9 13 16 18 18 16 14 13 11 11 11 11 10 9 8 8 10 14 16 14 8 0 5 7 7 9 11 10 10 10 10 8 6 7 7 8 12 19 23 25 28 30 30 32 36 39 39 36 34 33 31 30 29 28 27 27 26
16 11 6 5 8 10 11 14 17 17 16 16 16 16 15 15 15 15 11 3 4 6 6 7 8 9 10 10 9 8 9 11 14 15 15 13 12 12 11 11 12 12 12 10 7 5 5 8 13 14 11 5 1 5 8 9 10 8 6 7 9 9 7 7 7 6 6 10 15 18 22 24 25 27 30 32 33 32 31 30 29 28 28 27 26 25 24
14 8 5 5 8 9 11 13 15 16 16 16 16 16 15 14 14 14 13 8 2 3 4 5 5 6 9 12 12 11 11 12 13 13 13 13 14 14 14 14 13 13 12 11 9 6 4 5 9 12 12 8 4 3 5 7 9 11 9 6 5 6 8 8 8 8 7 6 9 13 17 19 20 22 23 23 22 24 26 26 26 25 24 23 22 21 21
11 6 5 5 7 9 11 13 14 15 15 16 17 16 15 14 13 13 13 11 6 1 3 4 3 2 4 8 11 13 14 15 15 15 15 14 13 14 15 16 15 14 13 12 10 8 6 4 6 9 12 12 9 6 3 3 6 9 10 10 8 6 5 6 7 9 10 10 10 11 13 15 17 19 22 21 18 17 20 22 22 22 22 23 22 22 21
10 6 5 5 6 9 11 12 13 14 15 15 17 17 15 14 13 12 11 11 10 6 2 2 2 3 3 2 5 8 10 12 14 16 18 18 17 17 17 17 17 17 15 14 13 12 10 7 6 7 9 12 12 9 7 5 4 5 6 7 8 8 6 5 5 6 7 8 10 12 15 16 17 18 19 18 16 15 17 19 20 21 22 23 23 23 23
11 7 6 5 6 8 10 12 12 13 14 16 17 16 14 13 13 12 11 11 10 9 6 3 1 4 5 4 3 2 4 7 11 14 17 19 19 18 18 17 17 17 17 16 15 15 13 11 9 8 8 10 12 12 9 7 3 1 3 2 4 6 6 6 6 6 6 6 5 6 10 14 16 18 19 20 19 19 18 17 17 19 20 21 21 22 23
13 9 6 6 6 7 8 10 12 13 14 16 17 14 11 12 13 12 11 10 9 8 7 6 3 0 3 5 4 2 1 2 5 8 11 13 14 13 13 14 15 16 16 16 15 15 14 13 12 11 9 9 9 11 11 10 8 7 7 6 3 1 3 4 4 5 6 7 6 6 7 7 9 12 16 18 19 19 19 19 18 18 19 19 19 20 21
14 11 8 7 7 6 7 9 11 12 14 16 14 10 9 11 13 12 11 9 9 8 8 8 6 4 3 3 3 2 1 1 1 1 3 5 7 9 10 11 12 13 14 14 14 14 14 13 12 11 11 10 9 9 10 12 12 12 11 10 8 5 2 1 0 0 2 4 5 6 7 7 6 6 8 11 12 12 13 15 17 17 17 17 17 18 19
14 13 12 11 8 6 6 8 10 11 12 12 9 7 8 10 12 13 12 11 9 8 8 9 8 5 4 4 4 3 2 1 2 2 3 2 2 4 6 8 10 12 13 13 14 14 14 13 12 11 10 10 10 9 9 11 12 13 13 13 12 10 8 5 4 3 2 3 3 3 4 5 5 5 5 6 8 9 10 11 11 11 12 13 15 17 18
11 12 13 14 12 10 9 9 8 8 8 8 6 7 8 9 11 12 13 13 12 9 8 8 9 7 6 5 5 5 5 3 3 4 4 3 2 1 3 5 7 10 11 12 12 13 13 13 12 12 11 10 10 9 8 8 9 10 11 12 13 13 13 11 9 7 5 4 4 4 4 4 4 5 5 5 7 8 9 10 10 10 10 11 13 14 14
8 10 11 12 13 13 13 12 11 9 8 6 5 6 7 8 10 11 12 14 14 12 9 7 6 7 8 9 9 10 10 8 6 7 7 6 4 3 3 3 4 6 8 9 10 10 11 12 12 12 12 12 12 12 11 10 9 9 9 9 10 10 11 12 12 11 10 8 7 6 6 6 7 8 8 7 7 7 6 6 7 7 7 8 8 9 9
6 7 10 12 12 14 14 14 13 12 10 6 5 5 6 8 9 10 11 12 14 14 12 10 7 6 7 8 9 11 13 12 12 12 11 9 7 6 5 4 4 4 5 6 7 7 8 10 10 11 12 12 13 13 13 13 13 12 11 11 11 11 10 10 10 11 11 11 10 9 9 9 9 10 10 11 11 10 9 9 8 8 8 8 8 9 9
3 5 8 11 13 14 15 15 14 13 10 6 5 5 6 7 7 8 9 11 13 13 14 13 10 8 7 6 7 9 11 12 12 13 13 12 11 11 10 8 6 5 4 4 4 4 5 6 8 9 10 11 11 12 13 13 14 14 14 14 13 13 12 12 11 11 11 11 11 10 10 10 11 11 12 13 13 13 13 13 13 13 12 12 12 13 13
2 4 7 9 11 13 15 16 16 13 9 5 6 5 4 4 5 7 8 9 11 13 14 13 12 11 10 8 7 8 9 10 10 11 12 12 12 12 12 11 10 8 7 6 5 4 4 3 4 5 6 7 8 9 9 10 11 12 12 13 13 13 13 13 12 11 11 10 10 10 10 10 11 12 12 13 14 15 16 16 16 17 16 16 16 16 17
Wind_Direction
272 275 274 271 279 286 286 289 290 283 282 291 302 302 295 299 295 288 295 298 298 312 319 312 319 334 342 40 88 114 123 120 138 168 166 158 173 187 194 196 200 206 215 224 230 230 226 226 231 235 235 231 227 228 230 221 212 209 208 207 208 210 211 211 211 212 213 214 218 220 222 224 224 226 227 227 228 227 225 226 228 230 232 230 229 229 230
270 269 275 278 277 280 281 279 280 281 278 280 287 287 285 285 276 275 283 287 298 310 306 300 301 299 295 299 61 125 139 127 120 145 157 143 151 172 186 194 197 202 207 212 216 219 219 221 226 230 233 231 225 225 227 220 213 211 209 208 209 211 212 209 208 210 211 211 215 219 221 224 225 227 229 229 229 229 227 227 228 230 232 230 226 224 226
275 272 278 284 278 277 280 276 273 274 274 278 282 278 279 283 276 273 279 289 301 304 297 296 295 286 279 269 255 189 145 131 113 123 136 129 125 139 162 184 194 199 204 208 211 215 216 216 220 222 226 226 223 224 226 222 221 219 214 211 212 212 212 209 208 209 209 209 212 217 220 223 225 228 230 230 231 232 230 228 228 230 232 232 227 222 223
277 276 279 284 285 281 277 274 272 271 272 276 278 272 271 278 279 278 283 293 303 300 290 293 291 278 273 269 256 233 177 142 123 121 126 124 118 118 135 167 187 196 203 206 209 212 213 214 218 221 222 222 221 223 224 224 226 225 224 222 221 219 216 213 211 210 209 209 211 215 219 221 224 228 230 232 232 233 232 230 229 230 232 234 231 224 222
277 279 278 283 294 290 275 270 270 267 266 271 273 270 268 268 270 274 282 292 285 263 273 282 280 271 273 275 264 243 226 202 152 136 130 125 119 115 122 149 176 191 200 204 207 208 210 213 216 218 219 221 224 227 228 230 230 228 227 226 225 225 222 216 213 212 211 211 212 215 218 220 223 226 229 232 233 235 235 233 231 231 232 235 235 229 223
276 281 286 289 295 286 264 261 266 260 255 260 263 261 261 258 251 252 264 276 263 255 267 274 273 275 273 273 271 254 241 244 226 164 149 140 127 120 121 138 160 179 195 203 205 205 208 213 216 217 217 220 227 233 234 237 238 236 234 231 227 225 224 220 215 213 213 213 213 216 218 221 223 225 228 232 234 236 237 235 233 232 231 233 235 235 229
269 280 290 296 278 259 251 250 262 264 261 263 257 249 253 255 245 241 248 257 254 252 261 269 271 276 274 266 266 262 248 247 245 212 178 169 150 138 132 134 142 146 167 196 206 208 208 212 216 217 216 217 223 229 232 236 238 238 240 240 233 225 223 222 218 213 213 214 214 216 218 219 223 225 227 231 233 235 237 236 236 236 234 233 234 237 236
259 265 259 242 257 266 259 253 265 270 272 275 267 257 263 266 255 249 252 255 253 249 252 261 264 268 272 268 263 260 255 250 249 240 216 201 193 176 164 156 152 147 147 167 197 210 211 213 217 219 219 217 218 221 225 232 235 236 239 239 230 221 220 222 220 215 212 213 215 216 217 219 221 224 226 229 231 234 236 237 238 237 236 235 234 235 238
246 247 246 250 266 275 270 264 267 267 270 279 276 268 270 270 261 258 256 254 255 251 249 256 258 253 263 271 265 258 256 252 251 249 239 232 237 229 213 202 182 167 169 171 176 196 208 213 218 221 223 222 219 218 221 226 230 233 234 229 221 219 221 222 220 217 213 213 215 217 218 219 221 222 225 227 228 232 234 236 238 237 236 237 235 235 238
242 244 252 259 264 266 263 260 260 260 262 271 277 274 271 265 262 262 259 255 257 255 250 254 258 253 252 262 265 261 258 253 250 247 243 244 255 256 242 235 227 213 206 198 193 195 202 212 219 221 222 222 223 223 222 223 224 228 229 224 218 219 222 221 219 219 217 215 216 218 220 222 222 222 223 225 227 230 233 236 238 239 239 239 238 237 237
237 230 235 243 246 253 256 252 250 254 257 259 273 281 272 264 262 263 262 260 259 256 251 250 257 258 251 252 259 263 263 259 252 246 242 245 256 262 256 250 245 235 229 226 215 207 206 211 219 223 222 220 222 223 224 224 224 222 221 220 218 220 223 223 222 221 220 219 218 220 222 225 226 224 224 225 227 230 233 236 238 239 240 240 240 239 237
234 228 231 240 246 251 256 255 250 247 248 255 268 278 265 261 263 263 263 263 263 261 254 249 254 259 256 251 254 260 265 265 262 256 249 246 252 259 259 257 252 243 239 236 229 223 216 212 216 223 224 220 218 220 224 227 228 223 218 218 219 221 224 227 227 225 223 222 222 222 223 226 228 227 226 225 226 228 231 234 237 238 239 240 241 241 239
237 232 231 236 244 252 258 259 247 230 232 247 249 250 259 265 268 268 268 270 272 271 263 253 253 258 259 256 255 258 264 268 268 266 260 255 256 258 259 260 254 246 246 251 245 236 229 221 219 222 225 222 219 220 224 229 231 230 224 220 220 223 226 229 230 229 226 224 224 225 225 228 230 230 229 227 227 228 230 233 236 238 239 240 240 241 239
238 230 227 231 243 250 255 261 254 237 239 246 244 251 262 268 270 270 272 275 279 280 273 261 255 255 256 256 256 257 261 267 270 268 262 260 263 262 261 263 258 248 246 252 253 248 241 233 227 225 227 227 224 222 224 226 230 232 230 224 221 223 226 228 229 230 229 227 227 228 228 229 231 232 231 230 229 229 230 232 234 238 240 241 241 241 240
252 234 225 227 242 246 248 255 255 249 250 253 254 259 265 269 271 270 269 272 277 279 277 271 261 255 254 255 254 254 257 262 268 269 264 261 264 264 262 264 264 256 250 251 254 253 248 241 236 232 230 229 228 225 223 223 225 230 231 227 224 223 225 227 229 231 232 230 229 230 230 230 231 233 233 232 231 231 230 231 233 236 240 241 240 240 240
306 241 223 223 238 247 252 257 254 251 254 257 261 263 262 263 267 269 269 272 274 274 273 272 266 258 254 254 254 253 254 257 262 267 267 265 264 264 262 264 267 263 257 256 258 257 251 244 241 239 235 231 229 227 224 222 223 226 228 226 224 222 223 226 228 230 231 232 232 232 231 230 231 234 234 233 233 232 231 231 233 235 238 240 240 239 239
299 267 257 260 261 260 265 268 263 260 258 257 259 262 262 263 266 269 270 271 271 270 269 268 265 260 254 252 252 252 252 255 258 262 266 267 267 263 261 263 267 266 262 261 259 256 253 249 243 242 240 235 230 228 226 223 223 225 226 224 222 221 222 224 227 229 231 232 233 232 231 231 231 234 235 234 234 234 232 230 232 235 237 238 240 241 241
287 279 275 272 268 267 270 270 269 270 268 265 264 266 267 269 270 271 271 271 270 267 264 263 263 262 258 253 250 250 251 253 256 260 263 264 264 263 261 263 267 267 266 264 260 255 253 252 246 242 241 238 232 228 226 224 224 226 228 226 223 222 222 222 224 227 229 231 232 232 231 231 232 233 234 234 235 235 233 230 231 234 236 237 239 241 242
292 287 273 261 258 264 271 271 273 276 275 272 270 269 268 269 271 271 271 270 269 263 260 260 260 260 260 257 251 250 250 251 254 259 259 256 256 259 261 262 263 263 264 265 263 258 254 252 247 242 240 239 235 229 226 225 225 227 229 229 227 226 224 223 224 226 227 229 232 233 232 231 231 232 233 233 234 235 233 230 231 233 234 235 237 238 240
307 299 285 273 267 268 272 272 271 273 273 273 273 272 270 269 269 269 269 268 266 261 256 257 258 258 259 258 255 254 251 249 252 255 253 249 248 251 256 257 256 256 259 261 262 260 256 251 246 242 239 238 235 231 228 227 227 228 230 232 233 232 229 227 227 229 231 233 235 236 235 232 231 232 233 234 236 237 235 231 230 232 235 236 238 239 240
318 313 301 292 281 272 271 270 270 272 273 274 275 274 274 273 271 270 269 267 264 261 255 254 255 256 256 257 258 259 254 250 252 252 249 244 242 244 250 254 253 251 253 255 256 256 254 250 245 241 240 238 235 232 230 229 229 230 231 233 235 236 234 233 232 234 236 239 239 240 239 235 231 231 234 235 237 238 236 232 230 232 237 240 244 245 244
317 314 308 305 296 283 274 270 271 272 272 273 274 273 273 273 273 272 271 268 265 262 257 254 253 253 253 255 258 260 256 252 252 250 246 244 243 243 247 252 254 250 250 252 252 250 249 247 244 241 240 238 235 233 231 230 230 230 231 233 236 236 235 236 238 240 242 244 243 242 239 235 232 231 232 234 235 237 235 231 228 230 233 236 239 242 242
319 313 308 310 308 299 289 281 279 278 275 273 274 274 274 274 273 271 271 269 266 263 259 255 254 252 251 252 255 257 255 253 252 248 244 245 248 247 248 252 253 248 248 250 249 247 246 244 242 241 241 239 235 231 230 230 230 230 231 232 234 235 235 236 239 242 244 245 245 244 240 236 233 231 232 233 233 234 234 230 227 227 230 231 233 234 235
321 315 309 310 311 305 298 293 291 289 284 278 276 276 278 278 275 272 270 268 266 262 258 255 253 252 252 251 252 253 253 251 251 247 242 244 249 251 252 255 253 246 244 247 250 250 250 247 244 240 238 237 235 231 229 230 230 231 230 229 229 232 234 235 238 240 241 242 244 245 245 242 237 233 231 231 231 232 231 227 225 226 228 229 229 229 229
320 318 316 317 316 309 300 296 296 296 291 284 281 279 280 280 278 274 269 266 263 261 258 254 251 252 253 251 249 250 250 247 246 245 242 243 248 252 255 258 256 248 241 243 252 255 255 254 251 245 239 237 235 231 229 229 230 230 230 229 229 230 232 234 238 241 244 246 247 247 248 250 247 239 233 229 229 230 229 226 224 225 226 227 228 230 232
317 317 317 318 316 310 304 300 298 296 291 287 285 284 284 284 281 276 270 266 262 259 257 254 251 250 251 251 249 248 247 243 241 240 240 242 248 253 256 259 259 252 240 240 254 259 257 258 259 254 249 246 240 233 229 228 229 229 229 229 230 231 230 232 234 237 242 248 251 251 251 253 254 249 240 232 228 227 226 224 222 223 225 227 230 234 237
314 312 315 318 316 311 309 308 305 301 297 293 292 291 289 287 284 280 274 267 261 256 254 253 252 251 251 252 250 246 242 238 236 235 237 241 246 253 255 256 258 253 242 239 252 259 255 255 258 258 258 256 247 237 231 230 230 231 230 230 232 233 233 234 235 236 238 242 246 249 250 252 253 252 246 237 230 226 224 223 222 223 226 230 234 238 238
311 310 312 315 314 312 314 316 313 310 308 304 300 298 295 291 289 287 281 271 260 253 252 252 253 253 253 253 251 245 238 234 233 234 236 239 244 250 253 254 254 252 246 244 249 251 247 248 252 256 259 259 252 241 233 231 231 232 233 232 232 233 234 235 237 238 238 239 241 245 247 247 250 250 247 241 235 229 223 221 223 225 229 233 237 239 238
308 308 310 312 310 309 315 320 318 315 315 312 308 305 299 293 289 288 285 278 265 255 249 249 251 253 254 253 249 242 236 233 234 235 235 238 244 250 253 253 252 251 248 245 248 249 244 244 247 251 255 257 256 248 238 233 231 232 234 234 233 232 232 234 236 237 238 239 241 243 243 242 243 244 244 244 242 235 226 221 222 226 228 232 235 236 236
305 305 308 308 303 305 313 320 320 321 322 318 314 311 302 294 289 285 285 286 277 260 247 244 247 251 253 251 245 238 233 232 233 233 233 236 244 249 251 249 247 247 244 241 245 248 241 238 240 243 245 248 250 248 243 238 235 234 235 235 234 233 232 233 236 237 238 240 240 240 238 237 237 239 241 242 242 240 232 224 223 226 228 229 232 233 232
309 309 308 304 301 306 316 322 322 325 327 324 321 315 305 294 288 282 278 283 281 267 250 243 244 245 247 247 242 235 233 234 234 232 233 238 243 246 248 243 238 237 238 237 239 241 233 226 227 229 226 227 234 239 240 239 239 238 237 236 236 235 235 235 236 236 237 239 239 238 236 235 234 235 237 237 239 239 234 226 222 224 227 228 229 229 227
313 311 307 304 305 312 320 324 324 326 328 327 327 324 313 298 288 281 276 275 275 272 265 256 251 246 243 239 235 230 232 237 239 236 237 241 241 241 244 240 232 228 230 233 235 240 237 204 167 190 220 226 229 234 239 239 237 236 236 236 236 236 237 237 237 236 237 238 239 237 235 232 231 232 233 234 237 237 232 224 220 221 224 225 225 224 223
321 319 315 314 315 319 324 325 325 329 331 330 331 331 325 308 291 285 282 275 268 270 276 280 271 256 240 230 228 231 235 240 243 241 241 242 239 237 239 237 227 221 221 225 231 236 235 206 141 120 222 225 222 228 239 242 238 235 235 236 236 236 236 236 236 236 237 239 240 239 234 230 231 231 231 235 239 235 226 219 217 218 220 221 219 218 220
334 327 322 320 322 327 331 328 326 331 334 332 333 336 332 317 293 278 268 254 250 260 270 282 282 258 228 213 218 232 237 238 240 238 236 236 234 233 236 235 224 215 212 216 223 230 225 194 171 151 129 187 217 224 228 232 235 236 236 236 236 236 237 238 238 237 236 237 240 239 233 229 230 229 228 233 237 231 221 215 213 213 214 216 216 218 220
336 324 319 321 323 326 331 330 328 331 335 335 338 341 340 329 307 269 234 217 227 249 261 273 281 261 227 212 215 224 230 230 229 226 223 224 226 226 230 234 227 217 212 212 214 223 241 189 159 140 122 145 206 222 224 218 220 227 230 232 234 237 239 239 240 240 239 238 237 236 232 229 229 228 229 232 232 226 219 213 209 207 209 213 215 217 218
337 323 317 321 326 332 339 341 335 332 335 338 342 347 347 342 331 291 230 218 227 245 254 259 261 246 231 221 220 224 226 225 225 223 220 219 219 218 222 232 230 222 219 220 220 226 245 253 129 106 97 118 177 203 218 220 210 191 184 200 216 228 234 238 240 240 240 241 238 233 231 231 230 229 230 231 227 221 215 209 203 203 207 211 212 214 216
342 330 318 322 333 343 350 353 348 341 338 338 342 348 351 349 346 329 232 201 195 223 242 234 200 198 217 225 223 223 221 213 212 219 221 220 219 216 217 228 234 230 228 230 232 233 237 244 238 77 77 84 120 172 199 209 207 190 155 144 150 178 206 221 227 227 228 231 230 226 227 231 231 229 226 223 218 213 208 204 204 207 210 211 212 216 219
347 341 328 328 344 352 352 353 355 352 344 339 341 348 351 351 353 351 273 182 159 164 201 203 193 197 209 216 218 219 210 193 192 206 216 218 217 217 220 229 239 240 235 234 237 237 235 240 249 258 88 91 95 118 160 178 184 187 184 174 163 160 167 171 173 189 205 213 216 215 215 218 222 224 220 214 209 205 203 204 207 212 214 215 217 220 224
349 349 343 341 353 355 351 352 356 359 353 342 341 347 352 353 357 0 349 216 187 178 185 188 192 204 212 210 207 211 202 190 195 209 219 219 215 218 226 232 239 247 249 244 245 247 239 236 242 252 259 203 87 90 107 136 157 171 180 184 182 178 171 164 152 150 171 188 198 202 204 207 214 220 219 215 210 207 206 209 212 214 215 218 220 221 223
349 355 7 8 358 354 352 351 353 358 359 351 346 350 355 354 357 4 5 338 212 198 185 176 180 194 198 192 190 196 198 198 205 217 227 229 221 218 223 227 232 246 258 261 262 274 264 235 228 233 243 255 46 76 82 96 116 132 152 177 186 190 193 193 190 181 167 168 177 189 197 201 206 212 217 217 214 212 211 212 214 215 216 218 220 221 221
355 3 22 11 350 348 352 351 349 355 2 359 352 353 358 357 357 2 9 12 15 188 177 161 157 170 179 182 184 184 185 194 205 212 221 231 232 228 226 228 231 239 250 256 261 270 270 239 223 219 216 210 185 103 78 80 90 97 98 107 152 188 204 205 204 208 212 194 180 184 192 195 197 202 209 212 212 209 208 208 208 209 211 213 215 217 219
2 8 10 1 347 344 347 347 345 352 2 2 356 355 359 1 1 3 9 13 14 40 156 145 141 166 180 184 189 189 189 196 207 212 215 223 230 230 229 230 231 232 235 242 249 256 257 246 235 227 216 203 188 169 147 98 82 87 93 94 98 118 170 197 202 206 211 212 205 196 192 190 192 197 202 202 198 195 196 196 196 197 197 197 198 201 207
7 5 354 354 347 342 343 344 344 348 356 0 358 357 359 1 2 3 7 11 12 14 43 129 196 263 284 235 205 207 212 220 228 231 230 230 232 233 234 234 233 233 234 237 242 250 256 257 252 243 231 220 212 201 184 158 111 83 86 98 100 103 118 150 171 178 186 199 207 206 202 197 192 189 190 191 187 183 184 186 187 191 195 199 201 203 207
9 5 348 348 350 344 343 344 343 343 350 358 359 357 357 1 4 3 4 7 11 13 16 25 240 249 262 266 264 265 251 239 236 236 236 237 237 237 237 237 237 237 238 239 242 246 251 253 254 256 250 237 229 226 220 208 203 300 343 30 101 113 114 119 137 149 150 147 157 178 191 195 195 193 194 197 196 190 187 187 188 190 194 200 206 209 211
3 6 354 350 353 348 343 342 340 340 347 353 355 356 1 6 7 5 4 6 9 13 19 27 38 172 220 226 232 254 291 251 229 224 225 229 232 232 231 232 233 234 235 237 238 239 241 242 246 252 254 247 237 232 232 232 237 257 285 303 314 141 130 118 117 133 138 133 123 118 128 153 177 190 198 204 204 200 197 200 204 205 203 205 210 215 217
350 359 1 355 347 341 342 342 338 335 338 343 349 359 14 17 12 9 9 10 11 14 21 27 32 44 79 118 152 176 180 13 6 209 199 207 215 219 220 221 223 225 226 229 231 233 235 237 239 241 245 246 243 238 237 239 241 246 255 270 286 295 287 272 284 138 144 142 134 122 119 125 144 169 190 201 205 202 200 204 211 217 217 216 221 229 233
338 347 355 0 0 356 348 341 334 329 332 340 356 22 32 23 16 14 14 17 19 20 25 30 32 35 55 78 96 115 114 83 59 59 67 85 161 197 206 212 215 218 221 224 225 227 229 231 231 231 232 233 234 234 236 240 244 244 243 246 254 265 273 278 279 268 231 204 188 164 143 134 133 137 157 179 186 185 187 194 203 210 211 210 214 222 228
326 333 346 1 14 22 16 3 353 345 342 351 22 46 40 26 21 18 17 19 21 23 26 32 37 46 61 72 77 78 77 85 117 127 111 92 89 132 179 197 207 213 219 223 226 227 229 228 227 224 222 220 219 220 223 228 235 240 241 240 242 247 252 258 263 263 254 237 222 209 198 183 164 152 152 160 168 174 181 186 188 191 198 203 206 211 217
316 327 343 359 14 24 27 24 19 12 9 20 48 56 44 31 23 20 19 22 25 28 32 38 45 58 69 74 76 76 73 74 90 106 109 109 116 136 162 182 196 206 214 219 223 227 229 230 229 227 224 221 219 219 218 219 222 229 237 242 246 247 247 249 252 254 254 252 244 226 212 206 199 189 183 183 185 189 196 203 204 206 213 219 219 219 225
309 332 349 360 9 20 28 31 25 17 19 40 74 73 53 40 30 23 21 24 26 30 36 42 50 64 74 75 76 76 72 70 75 85 91 96 105 114 123 139 162 186 205 214 216 219 223 227 229 229 228 226 224 223 222 222 222 224 228 234 241 246 248 248 247 245 244 245 246 241 231 221 212 205 201 200 200 199 200 206 214 221 226 229 228 227 230
327 340 351 358 4 11 19 26 26 21 25 54 90 81 58 49 43 35 29 25 24 29 37 44 50 62 73 76 80 83 79 73 74 81 85 89 92 93 94 97 106 119 143 175 196 208 216 221 224 227 229 229 229 228 227 225 224 225 227 229 232 236 239 240 240 238 236 234 234 234 231 225 221 218 215 212 210 208 205 204 204 207 214 219 223 225 228
5 350 348 356 3 7 11 17 22 25 35 72 95 82 59 48 41 37 36 32 28 30 37 42 47 56 66 68 72 82 85 82 81 83 84 85 88 90 90 89 91 94 99 107 117 125 135 155 182 200 210 217 223 225 227 227 226 226 227 228 230 231 233 233 233 233 233 230 226 224 222 218 216 215 214 213 212 212 212 209 207 208 212 217 220 224 229
Height
3114 3115 3116 3114 3114 3115 3115 3114 3114 3112 3111 3112 3114 3115 3116 3118 3116 3111 3111 3112 3111 3112 3114 3113 3112 3112 3111 3109 3107 3107 3105 3104 3106 3109 3109 3109 3111 3115 3117 3119 3124 3129 3131 3133 3135 3138 3141 3143 3145 3147 3148 3150 3152 3153 3155 3157 3158 3160 3161 3163 3165 3167 3168 3170 3173 3174 3176 3178 3181 3183 3186 3189 3191 3193 3195 3197 3198 3200 3201 3203 3204 3205 3207 3209 3211 3212 3214
3111 3112 3114 3114 3113 3112 3112 3112 3112 3112 3110 3111 3112 3114 3115 3116 3114 3111 3111 3112 3111 3112 3113 3112 3112 3112 3111 3110 3109 3107 3105 3104 3104 3105 3107 3108 3111 3114 3116 3118 3122 3125 3127 3129 3132 3134 3137 3140 3142 3144 3145 3147 3149 3151 3153 3155 3157 3158 3159 3161 3163 3164 3166 3168 3170 3173 3174 3176 3178 3181 3183 3185 3188 3190 3192 3194 3195 3197 3198 3200 3201 3203 3204 3205 3207 3209 3211
3110 3110 3111 3113 3112 3111 3110 3109 3109 3110 3110 3110 3111 3112 3113 3113 3112 3110 3110 3111 3111 3112 3111 3112 3112 3111 3110 3111 3110 3107 3105 3105 3105 3105 3105 3108 3110 3112 3114 3116 3118 3120 3123 3126 3129 3132 3135 3136 3138 3140 3141 3144 3146 3149 3151 3154 3156 3158 3159 3160 3161 3162 3164 3167 3169 3170 3172 3173 3175 3178 3180 3183 3185 3187 3189 3191 3193 3194 3196 3197 3199 3200 3201 3202 3204 3206 3207
3108 3109 3110 3111 3111 3111 3109 3106 3107 3109 3110 3109 3109 3110 3111 3112 3111 3110 3109 3111 3111 3110 3108 3108 3109 3108 3107 3109 3109 3107 3105 3105 3105 3105 3105 3107 3109 3110 3112 3114 3116 3119 3121 3124 3127 3129 3131 3133 3135 3137 3138 3141 3144 3146 3149 3151 3153 3155 3156 3159 3161 3163 3164 3165 3167 3169 3170 3171 3173 3175 3178 3180 3183 3185 3187 3188 3190 3191 3192 3194 3196 3197 3198 3199 3201 3203 3204
3106 3107 3110 3109 3110 3109 3106 3105 3106 3107 3108 3108 3107 3107 3109 3110 3110 3110 3109 3108 3108 3108 3106 3105 3105 3105 3105 3106 3107 3106 3105 3104 3105 3105 3105 3106 3108 3110 3111 3113 3115 3117 3119 3121 3123 3125 3127 3129 3131 3133 3136 3139 3142 3144 3146 3148 3149 3150 3152 3154 3157 3160 3163 3164 3165 3167 3168 3169 3171 3173 3175 3178 3180 3182 3184 3185 3186 3188 3189 3192 3193 3194 3195 3196 3197 3199 3201
3105 3106 3108 3109 3109 3106 3103 3105 3106 3104 3105 3105 3104 3105 3107 3107 3106 3107 3106 3104 3105 3107 3107 3106 3106 3105 3104 3104 3105 3105 3104 3104 3104 3105 3104 3105 3107 3109 3111 3113 3114 3116 3118 3119 3119 3120 3123 3125 3127 3130 3134 3138 3140 3142 3144 3146 3148 3151 3153 3154 3154 3156 3159 3162 3164 3165 3166 3167 3168 3171 3173 3175 3177 3179 3180 3182 3184 3185 3187 3188 3190 3191 3192 3193 3194 3196 3198
3104 3105 3108 3109 3106 3102 3101 3103 3102 3100 3101 3101 3101 3103 3103 3101 3102 3104 3103 3102 3104 3105 3105 3105 3107 3105 3102 3101 3103 3103 3103 3103 3103 3103 3103 3104 3105 3107 3110 3112 3114 3116 3117 3118 3118 3118 3119 3121 3125 3128 3131 3134 3136 3138 3141 3144 3146 3149 3153 3155 3157 3157 3157 3158 3160 3162 3163 3164 3166 3168 3170 3172 3174 3176 3177 3179 3181 3182 3184 3185 3187 3188 3190 3191 3192 3193 3194
3103 3103 3105 3105 3101 3098 3100 3101 3099 3098 3099 3098 3099 3100 3098 3097 3099 3100 3100 3100 3101 3101 3102 3104 3105 3103 3101 3099 3100 3101 3102 3101 3101 3101 3102 3103 3104 3106 3108 3110 3112 3115 3116 3118 3118 3118 3118 3120 3122 3125 3127 3128 3130 3133 3138 3141 3144 3146 3148 3150 3152 3154 3153 3154 3156 3157 3159 3161 3163 3165 3167 3169 3171 3172 3174 3176 3178 3179 3181 3182 3183 3185 3186 3188 3189 3190 3191
3100 3100 3101 3101 3098 3096 3097 3098 3098 3098 3097 3096 3097 3096 3095 3095 3096 3096 3096 3097 3096 3097 3099 3101 3101 3101 3100 3097 3097 3098 3099 3099 3099 3100 3101 3103 3103 3104 3106 3108 3109 3111 3113 3115 3116 3116 3117 3119 3120 3122 3124 3126 3128 3130 3134 3137 3139 3142 3144 3145 3147 3148 3149 3150 3151 3153 3156 3158 3160 3162 3164 3165 3167 3169 3171 3173 3175 3176 3177 3179 3180 3181 3183 3184 3186 3187 3188
3097 3098 3099 3099 3097 3094 3093 3094 3096 3096 3095 3095 3095 3094 3093 3093 3093 3092 3093 3093 3092 3093 3096 3097 3097 3099 3099 3096 3095 3096 3097 3097 3098 3098 3100 3101 3102 3103 3104 3105 3107 3108 3110 3112 3114 3115 3116 3117 3118 3120 3122 3124 3127 3128 3130 3133 3135 3137 3139 3141 3142 3144 3145 3146 3148 3150 3152 3154 3156 3158 3160 3162 3164 3166 3168 3170 3171 3173 3174 3175 3177 3178 3180 3181 3183 3184 3185
3094 3096 3096 3095 3094 3091 3090 3092 3093 3093 3093 3094 3094 3092 3090 3090 3090 3090 3090 3089 3089 3090 3092 3093 3093 3094 3095 3095 3094 3095 3096 3096 3098 3098 3099 3100 3101 3101 3101 3102 3104 3106 3108 3109 3111 3113 3114 3115 3116 3117 3118 3121 3125 3127 3128 3129 3131 3132 3134 3136 3138 3139 3141 3142 3144 3146 3149 3151 3153 3155 3157 3159 3161 3163 3165 3167 3168 3170 3171 3172 3174 3175 3177 3178 3179 3180 3182
3091 3093 3092 3092 3091 3089 3088 3089 3090 3090 3091 3092 3092 3090 3087 3087 3088 3088 3087 3087 3086 3086 3088 3090 3089 3089 3090 3092 3092 3093 3094 3095 3097 3098 3098 3098 3099 3099 3099 3100 3101 3102 3104 3106 3108 3110 3111 3113 3114 3115 3116 3119 3122 3124 3125 3126 3127 3128 3130 3132 3134 3136 3137 3139 3141 3143 3145 3147 3150 3152 3154 3156 3157 3159 3162 3163 3165 3166 3168 3169 3170 3172 3173 3174 3176 3177 3178
3087 3089 3089 3088 3087 3086 3086 3087 3086 3087 3088 3088 3088 3086 3085 3085 3086 3086 3085 3084 3083 3083 3084 3086 3085 3084 3086 3088 3089 3091 3091 3092 3094 3095 3095 3095 3095 3095 3096 3097 3098 3099 3100 3102 3104 3106 3108 3109 3111 3112 3113 3115 3118 3120 3121 3122 3123 3125 3127 3128 3130 3132 3134 3135 3137 3138 3140 3143 3146 3148 3151 3152 3154 3156 3158 3160 3162 3163 3164 3166 3167 3168 3169 3170 3172 3173 3175
3084 3085 3086 3086 3085 3084 3084 3084 3084 3084 3085 3085 3084 3083 3083 3083 3083 3083 3083 3082 3081 3081 3081 3082 3082 3082 3082 3084 3086 3087 3088 3088 3089 3091 3091 3092 3092 3092 3093 3094 3095 3096 3097 3099 3101 3103 3105 3106 3107 3108 3109 3111 3113 3115 3116 3117 3120 3122 3123 3124 3125 3128 3129 3131 3132 3134 3136 3139 3141 3144 3146 3148 3150 3152 3154 3156 3158 3159 3161 3162 3163 3164 3165 3166 3168 3170 3171
3082 3082 3083 3083 3082 3081 3081 3082 3082 3082 3083 3082 3081 3081 3081 3081 3080 3080 3080 3079 3079 3079 3078 3078 3078 3079 3079 3080 3081 3084 3085 3085 3085 3087 3088 3090 3090 3090 3091 3092 3092 3094 3095 3097 3098 3100 3102 3103 3104 3105 3105 3106 3108 3109 3111 3114 3117 3118 3119 3120 3121 3123 3124 3126 3128 3130 3132 3134 3137 3139 3142 3144 3146 3148 3150 3152 3154 3155 3157 3158 3160 3161 3161 3162 3164 3166 3167
3082 3081 3080 3080 3079 3078 3079 3079 3079 3079 3080 3079 3078 3078 3078 3078 3077 3077 3076 3076 3076 3076 3075 3074 3074 3075 3076 3076 3077 3080 3081 3081 3082 3083 3085 3087 3089 3088 3088 3089 3090 3091 3092 3094 3095 3097 3098 3100 3101 3101 3101 3102 3104 3105 3108 3111 3112 3113 3114 3116 3117 3118 3120 3121 3123 3125 3127 3130 3132 3135 3137 3140 3142 3143 3145 3147 3149 3151 3153 3155 3156 3157 3157 3158 3159 3161 3162
3081 3080 3078 3078 3077 3076 3076 3076 3075 3075 3076 3075 3075 3074 3074 3073 3073 3073 3072 3072 3073 3073 3072 3071 3071 3071 3072 3072 3073 3076 3077 3077 3078 3079 3081 3084 3086 3085 3085 3085 3086 3087 3088 3090 3091 3093 3095 3096 3097 3098 3098 3098 3100 3102 3105 3107 3107 3108 3110 3111 3112 3113 3115 3117 3119 3121 3123 3125 3128 3130 3133 3135 3137 3139 3140 3142 3144 3146 3149 3150 3151 3153 3154 3154 3155 3157 3158
3079 3078 3076 3075 3074 3074 3074 3072 3072 3072 3072 3071 3071 3070 3069 3069 3069 3069 3069 3068 3069 3070 3069 3068 3068 3068 3068 3069 3070 3072 3073 3073 3074 3075 3077 3080 3082 3082 3081 3082 3083 3084 3085 3086 3087 3088 3090 3092 3093 3094 3095 3095 3096 3099 3101 3102 3102 3103 3105 3106 3108 3109 3111 3113 3115 3117 3119 3121 3123 3126 3128 3130 3132 3134 3136 3137 3139 3142 3145 3147 3148 3149 3150 3151 3152 3153 3154
3077 3075 3074 3072 3071 3071 3071 3070 3069 3068 3068 3067 3066 3066 3065 3064 3064 3064 3064 3064 3064 3065 3065 3064 3064 3064 3064 3065 3066 3068 3070 3070 3070 3070 3073 3076 3078 3078 3078 3079 3080 3080 3081 3082 3082 3084 3085 3087 3088 3090 3091 3092 3093 3094 3096 3097 3098 3099 3100 3102 3104 3105 3107 3109 3111 3113 3115 3116 3118 3121 3123 3125 3127 3129 3131 3133 3135 3137 3140 3143 3144 3146 3147 3148 3149 3150 3151
3074 3073 3071 3069 3069 3068 3067 3066 3065 3065 3063 3063 3062 3062 3061 3060 3060 3059 3059 3059 3060 3060 3060 3060 3059 3059 3060 3061 3062 3064 3065 3065 3066 3066 3068 3071 3073 3074 3075 3076 3076 3076 3077 3077 3078 3079 3080 3082 3083 3085 3086 3087 3089 3090 3091 3092 3094 3095 3096 3098 3100 3102 3103 3105 3107 3108 3110 3112 3114 3116 3118 3120 3123 3125 3127 3129 3130 3133 3135 3138 3140 3142 3144 3145 3147 3148 3149
3070 3069 3067 3066 3065 3065 3064 3062 3062 3061 3059 3059 3058 3058 3057 3056 3055 3055 3054 3054 3055 3055 3055 3055 3054 3054 3055 3056 3057 3059 3060 3061 3061 3062 3064 3067 3069 3070 3071 3072 3072 3072 3073 3073 3073 3075 3076 3077 3078 3080 3081 3083 3084 3085 3086 3088 3089 3090 3091 3094 3096 3098 3099 3101 3102 3104 3106 3107 3109 3111 3114 3116 3118 3120 3122 3124 3126 3128 3131 3134 3137 3139 3141 3143 3145 3146 3147
3067 3066 3064 3062 3061 3061 3060 3059 3058 3057 3056 3055 3053 3053 3053 3052 3051 3050 3050 3049 3050 3050 3050 3049 3049 3049 3050 3052 3053 3054 3055 3056 3057 3058 3061 3063 3064 3065 3066 3068 3068 3069 3069 3069 3070 3071 3072 3073 3074 3075 3077 3078 3079 3080 3082 3083 3084 3085 3087 3090 3092 3093 3094 3096 3098 3100 3102 3103 3105 3107 3109 3111 3113 3115 3116 3119 3121 3124 3126 3129 3133 3136 3138 3141 3143 3144 3145
3064 3063 3061 3059 3058 3057 3056 3055 3054 3053 3053 3051 3049 3049 3048 3047 3047 3046 3044 3044 3044 3045 3045 3045 3045 3045 3046 3047 3048 3049 3051 3052 3052 3054 3057 3059 3060 3061 3062 3063 3065 3066 3066 3066 3066 3066 3067 3068 3069 3071 3072 3072 3073 3075 3076 3077 3078 3080 3082 3085 3087 3088 3090 3092 3094 3096 3098 3099 3100 3101 3103 3105 3107 3109 3111 3114 3117 3119 3122 3125 3129 3132 3135 3137 3139 3141 3142
3062 3060 3059 3057 3055 3054 3053 3052 3051 3050 3049 3047 3045 3044 3043 3043 3042 3041 3039 3039 3039 3039 3040 3041 3041 3041 3041 3043 3044 3045 3046 3047 3048 3050 3053 3055 3056 3057 3058 3059 3061 3062 3063 3063 3063 3062 3062 3062 3064 3066 3067 3067 3068 3070 3071 3072 3074 3075 3077 3079 3082 3084 3086 3087 3089 3090 3092 3093 3094 3095 3097 3098 3100 3102 3105 3109 3112 3115 3117 3121 3125 3128 3131 3133 3135 3137 3139
3060 3058 3056 3055 3053 3052 3050 3049 3048 3047 3045 3043 3041 3040 3039 3037 3036 3035 3034 3033 3033 3034 3035 3036 3037 3037 3038 3039 3040 3041 3042 3043 3044 3046 3049 3052 3053 3054 3055 3056 3057 3059 3060 3060 3060 3059 3059 3058 3059 3060 3061 3062 3064 3066 3067 3068 3069 3071 3073 3075 3076 3077 3079 3081 3083 3085 3087 3089 3090 3092 3094 3096 3097 3097 3100 3104 3108 3111 3114 3117 3121 3124 3127 3129 3131 3133 3135
3058 3056 3054 3052 3051 3049 3048 3046 3045 3043 3041 3039 3037 3035 3034 3032 3031 3030 3029 3028 3029 3029 3030 3031 3032 3034 3034 3035 3036 3037 3038 3040 3041 3042 3045 3048 3050 3051 3052 3053 3053 3055 3056 3057 3057 3057 3057 3056 3055 3055 3055 3057 3059 3061 3062 3063 3065 3066 3068 3070 3070 3070 3070 3072 3075 3079 3082 3084 3087 3090 3093 3096 3096 3096 3097 3101 3104 3106 3109 3113 3117 3120 3123 3125 3127 3130 3132
3056 3054 3052 3050 3048 3047 3045 3043 3041 3039 3038 3036 3033 3032 3030 3028 3026 3025 3024 3024 3024 3025 3025 3026 3028 3029 3030 3031 3032 3033 3035 3036 3038 3039 3042 3045 3047 3048 3049 3050 3050 3051 3052 3054 3056 3055 3054 3053 3052 3051 3050 3051 3054 3056 3058 3059 3060 3062 3063 3065 3066 3066 3066 3067 3069 3073 3076 3080 3083 3086 3089 3092 3093 3094 3095 3098 3100 3101 3105 3109 3113 3117 3119 3122 3124 3126 3128
3055 3053 3050 3048 3045 3043 3042 3040 3038 3036 3034 3032 3030 3028 3026 3025 3023 3022 3021 3021 3020 3020 3021 3023 3024 3025 3026 3027 3028 3029 3031 3033 3034 3036 3039 3042 3044 3045 3046 3047 3048 3048 3049 3052 3054 3053 3051 3050 3049 3048 3046 3045 3047 3051 3053 3054 3056 3057 3058 3060 3061 3063 3064 3065 3066 3069 3073 3076 3079 3081 3084 3087 3089 3090 3092 3095 3096 3097 3100 3105 3109 3112 3115 3118 3120 3122 3123
3053 3051 3049 3046 3044 3041 3039 3038 3036 3033 3031 3029 3027 3025 3023 3021 3020 3019 3018 3017 3017 3017 3018 3020 3021 3021 3023 3024 3025 3026 3028 3029 3031 3033 3036 3038 3041 3042 3043 3045 3045 3046 3047 3050 3051 3050 3049 3048 3047 3046 3044 3041 3042 3045 3047 3048 3050 3052 3053 3054 3056 3058 3060 3062 3063 3066 3069 3072 3074 3076 3079 3082 3084 3085 3088 3092 3095 3095 3096 3099 3103 3107 3110 3113 3115 3117 3119
3051 3049 3047 3045 3043 3040 3038 3036 3034 3031 3029 3027 3024 3022 3020 3018 3017 3016 3016 3015 3014 3014 3015 3016 3017 3018 3019 3020 3021 3022 3024 3026 3028 3031 3033 3035 3037 3039 3041 3042 3043 3044 3045 3047 3048 3048 3047 3046 3045 3044 3042 3039 3038 3038 3040 3042 3044 3045 3047 3048 3050 3053 3056 3058 3060 3062 3065 3067 3068 3070 3072 3075 3077 3080 3083 3089 3093 3094 3094 3095 3098 3102 3106 3109 3111 3113 3114
3048 3047 3045 3043 3041 3039 3036 3034 3032 3030 3027 3025 3022 3020 3018 3016 3015 3014 3013 3013 3012 3012 3012 3013 3014 3015 3016 3017 3018 3020 3021 3023 3026 3028 3030 3032 3034 3036 3038 3039 3040 3041 3042 3044 3046 3046 3045 3043 3041 3040 3039 3037 3035 3034 3035 3036 3037 3039 3040 3042 3045 3049 3051 3053 3055 3058 3060 3061 3063 3065 3067 3070 3072 3074 3078 3083 3087 3090 3092 3093 3095 3098 3102 3104 3107 3109 3110
3046 3045 3043 3041 3039 3037 3035 3033 3031 3028 3026 3023 3021 3018 3016 3014 3012 3011 3011 3011 3010 3010 3010 3011 3011 3012 3013 3014 3015 3017 3019 3021 3023 3026 3028 3029 3031 3033 3035 3036 3037 3038 3039 3041 3042 3043 3042 3041 3038 3036 3035 3034 3033 3033 3033 3033 3033 3034 3036 3038 3040 3044 3047 3048 3050 3052 3054 3056 3058 3060 3062 3064 3066 3068 3072 3077 3081 3085 3089 3090 3091 3094 3098 3100 3102 3105 3106
3045 3043 3041 3039 3037 3035 3033 3031 3029 3026 3024 3022 3019 3017 3014 3013 3011 3009 3008 3008 3008 3008 3008 3009 3009 3010 3011 3012 3014 3015 3017 3019 3021 3023 3025 3027 3028 3030 3031 3033 3034 3035 3036 3038 3039 3039 3040 3039 3036 3033 3032 3032 3031 3031 3032 3032 3032 3033 3034 3035 3037 3039 3041 3043 3045 3047 3050 3053 3054 3055 3057 3060 3062 3064 3068 3073 3077 3082 3085 3087 3088 3090 3094 3096 3099 3101 3103
3043 3041 3039 3037 3035 3033 3031 3030 3027 3025 3023 3021 3018 3016 3013 3011 3010 3008 3007 3007 3007 3007 3007 3007 3007 3008 3009 3011 3013 3014 3015 3017 3019 3021 3022 3024 3025 3027 3028 3029 3030 3031 3033 3035 3036 3037 3037 3036 3034 3033 3032 3031 3030 3030 3031 3031 3030 3031 3031 3033 3034 3035 3037 3039 3041 3044 3046 3049 3050 3051 3054 3056 3058 3060 3064 3068 3073 3077 3081 3083 3085 3087 3090 3093 3095 3097 3099
3041 3039 3037 3035 3034 3032 3030 3028 3026 3024 3022 3020 3017 3015 3013 3010 3009 3007 3007 3006 3007 3006 3006 3006 3006 3007 3008 3009 3011 3012 3013 3015 3017 3018 3019 3021 3022 3024 3025 3026 3027 3029 3030 3032 3033 3034 3034 3033 3032 3032 3032 3030 3029 3030 3030 3029 3028 3028 3029 3030 3031 3033 3035 3036 3037 3038 3041 3043 3045 3048 3050 3053 3055 3057 3059 3064 3069 3073 3077 3080 3082 3084 3087 3090 3091 3093 3094
3040 3038 3036 3034 3032 3031 3029 3027 3025 3023 3021 3019 3016 3014 3012 3010 3008 3006 3006 3006 3006 3006 3005 3005 3006 3006 3007 3008 3009 3010 3012 3013 3015 3016 3017 3018 3020 3021 3022 3023 3025 3026 3028 3029 3031 3031 3032 3032 3031 3031 3031 3030 3029 3029 3029 3028 3028 3027 3027 3028 3030 3031 3033 3033 3033 3033 3035 3038 3041 3044 3047 3050 3053 3055 3057 3060 3065 3070 3074 3077 3079 3080 3082 3085 3086 3088 3090
3038 3036 3034 3033 3031 3030 3028 3026 3024 3022 3020 3018 3016 3014 3011 3009 3007 3006 3005 3005 3005 3005 3005 3005 3005 3005 3006 3006 3007 3008 3010 3011 3013 3014 3015 3016 3017 3019 3020 3021 3022 3024 3025 3027 3028 3028 3029 3030 3030 3030 3030 3029 3029 3028 3027 3027 3027 3026 3026 3028 3029 3029 3030 3031 3031 3032 3031 3033 3037 3041 3044 3047 3051 3054 3056 3059 3063 3067 3071 3074 3075 3077 3079 3080 3082 3084 3085
3037 3035 3033 3032 3030 3029 3027 3025 3023 3022 3019 3017 3016 3014 3012 3009 3007 3006 3005 3005 3004 3004 3004 3004 3004 3004 3005 3006 3006 3007 3008 3010 3011 3011 3012 3013 3015 3017 3018 3020 3021 3022 3023 3025 3026 3026 3027 3028 3029 3029 3029 3028 3028 3027 3026 3025 3025 3025 3026 3026 3027 3028 3028 3029 3030 3030 3029 3030 3034 3038 3041 3045 3049 3052 3055 3059 3062 3064 3066 3068 3069 3072 3075 3077 3078 3080 3081
3035 3034 3032 3031 3030 3029 3027 3025 3023 3021 3019 3017 3015 3014 3012 3010 3008 3006 3005 3004 3004 3003 3003 3003 3003 3003 3004 3005 3005 3006 3007 3008 3009 3009 3010 3012 3014 3016 3017 3018 3020 3021 3022 3023 3024 3024 3025 3026 3026 3027 3028 3028 3027 3026 3026 3025 3024 3025 3025 3026 3027 3027 3028 3028 3030 3030 3029 3029 3032 3036 3039 3043 3047 3050 3053 3056 3058 3059 3061 3063 3065 3068 3070 3072 3074 3075 3077
3034 3033 3032 3031 3029 3028 3027 3025 3023 3021 3019 3017 3015 3014 3012 3010 3008 3006 3005 3004 3003 3003 3002 3002 3002 3002 3003 3003 3004 3005 3006 3007 3008 3008 3009 3011 3013 3014 3015 3017 3018 3019 3020 3021 3022 3023 3024 3024 3024 3025 3027 3027 3027 3027 3027 3026 3025 3025 3025 3025 3026 3027 3028 3028 3029 3030 3030 3030 3031 3035 3038 3041 3044 3048 3050 3053 3054 3056 3058 3060 3063 3065 3066 3068 3069 3071 3073
3034 3032 3031 3030 3029 3027 3026 3025 3023 3022 3020 3018 3015 3014 3012 3011 3009 3007 3006 3004 3003 3003 3002 3002 3002 3002 3002 3003 3003 3005 3006 3007 3007 3008 3008 3009 3010 3012 3014 3015 3017 3018 3019 3020 3021 3022 3022 3023 3023 3023 3024 3025 3026 3027 3028 3027 3025 3025 3025 3026 3026 3027 3028 3027 3028 3029 3030 3031 3033 3035 3038 3040 3043 3045 3048 3050 3052 3054 3055 3057 3059 3061 3063 3064 3066 3068 3070
3033 3032 3031 3030 3028 3027 3026 3024 3023 3022 3020 3018 3016 3014 3013 3011 3010 3008 3007 3005 3004 3004 3003 3002 3002 3002 3002 3003 3003 3005 3006 3006 3006 3007 3007 3008 3009 3010 3012 3013 3015 3016 3017 3018 3020 3021 3021 3022 3022 3022 3023 3023 3024 3025 3026 3025 3025 3025 3025 3026 3027 3027 3028 3028 3028 3029 3030 3031 3033 3035 3038 3040 3041 3043 3045 3047 3049 3052 3053 3055 3056 3058 3060 3061 3062 3064 3067
3032 3031 3030 3029 3028 3027 3025 3024 3023 3022 3020 3018 3016 3014 3013 3011 3010 3009 3007 3006 3005 3004 3003 3002 3002 3001 3002 3002 3003 3004 3005 3005 3005 3006 3006 3007 3008 3009 3010 3011 3013 3014 3015 3016 3018 3019 3020 3021 3021 3022 3023 3023 3023 3024 3024 3023 3023 3024 3025 3026 3026 3027 3028 3028 3029 3030 3030 3031 3033 3034 3036 3038 3040 3041 3042 3045 3047 3050 3052 3053 3053 3055 3057 3058 3060 3062 3064
3032 3031 3030 3029 3028 3027 3025 3024 3022 3021 3020 3018 3016 3015 3014 3012 3011 3009 3008 3007 3006 3005 3004 3003 3002 3002 3002 3002 3003 3003 3003 3003 3003 3004 3005 3006 3006 3007 3008 3009 3010 3012 3013 3014 3015 3017 3018 3019 3020 3021 3021 3022 3022 3023 3023 3022 3022 3023 3024 3025 3025 3026 3027 3029 3029 3030 3030 3031 3032 3033 3034 3036 3038 3039 3041 3042 3044 3046 3049 3051 3052 3053 3054 3056 3058 3059 3061
3032 3031 3029 3028 3028 3027 3025 3024 3023 3021 3019 3018 3017 3015 3014 3013 3011 3010 3009 3007 3007 3006 3005 3004 3003 3003 3003 3002 3002 3002 3002 3002 3002 3003 3003 3004 3004 3005 3006 3007 3008 3009 3010 3012 3013 3014 3015 3017 3018 3018 3019 3020 3020 3021 3022 3022 3022 3023 3023 3024 3025 3026 3027 3028 3030 3030 3030 3031 3032 3033 3034 3035 3036 3038 3039 3040 3041 3043 3045 3047 3050 3051 3052 3054 3055 3057 3058
3031 3030 3029 3028 3027 3026 3025 3024 3022 3021 3020 3018 3017 3016 3015 3013 3012 3011 3010 3008 3007 3006 3006 3005 3004 3004 3003 3003 3002 3002 3002 3002 3002 3002 3002 3002 3002 3003 3004 3005 3006 3007 3008 3009 3010 3011 3012 3014 3015 3016 3017 3018 3018 3019 3020 3021 3021 3022 3023 3024 3025 3026 3027 3028 3029 3031 3031 3032 3032 3033 3034 3035 3036 3037 3038 3039 3040 3042 3043 3045 3048 3049 3051 3052 3054 3055 3056
3030 3029 3028 3027 3026 3025 3024 3023 3022 3021 3019 3018 3017 3016 3015 3014 3013 3012 3010 3009 3008 3007 3006 3006 3005 3004 3004 3003 3003 3003 3002 3002 3002 3002 3002 3001 3002 3002 3003 3003 3004 3005 3006 3007 3008 3008 3009 3011 3012 3013 3014 3016 3017 3017 3018 3019 3020 3021 3022 3023 3024 3025 3026 3027 3028 3029 3031 3032 3033 3034 3035 3035 3036 3037 3038 3039 3040 3042 3043 3045 3047 3047 3048 3050 3051 3053 3053
3030 3028 3027 3026 3026 3025 3024 3023 3021 3020 3019 3018 3017 3016 3016 3015 3014 3013 3011 3010 3009 3008 3007 3006 3006 3005 3005 3004 3004 3003 3003 3002 3002 3002 3002 3002 3002 3002 3002 3002 3003 3003 3004 3005 3006 3007 3007 3008 3010 3011 3012 3013 3015 3015 3016 3017 3018 3019 3020 3021 3022 3024 3025 3026 3027 3028 3030 3031 3032 3033 3034 3035 3036 3037 3038 3040 3041 3042 3043 3045 3046 3046 3047 3048 3049 3050 3051
3029 3028 3027 3026 3025 3025 3024 3022 3021 3020 3019 3018 3017 3016 3016 3015 3015 3014 3013 3011 3010 3009 3007 3007 3007 3006 3006 3005 3005 3004 3004 3003 3003 3002 3002 3003 3003 3003 3003 3003 3003 3003 3003 3003 3004 3005 3006 3006 3008 3009 3010 3011 3013 3014 3014 3015 3016 3017 3018 3019 3020 3021 3023 3024 3026 3027 3028 3030 3031 3032 3033 3034 3035 3037 3038 3039 3040 3041 3042 3043 3044 3045 3046 3046 3047 3048 3049
3029 3028 3027 3026 3025 3024 3024 3023 3021 3020 3019 3018 3017 3017 3016 3016 3015 3015 3014 3012 3011 3010 3009 3008 3007 3007 3007 3006 3006 3005 3005 3005 3004 3003 3003 3003 3004 3004 3003 3003 3003 3003 3003 3003 3003 3004 3004 3005 3006 3007 3008 3009 3011 3012 3013 3014 3015 3016 3017 3017 3018 3019 3020 3022 3023 3025 3026 3028 3029 3030 3032 3033 3034 3035 3036 3037 3038 3039 3040 3041 3042 3043 3044 3045 3045 3046 3047
3028 3027 3026 3025 3024 3024 3023 3022 3021 3020 3019 3018 3018 3017 3017 3016 3016 3015 3014 3013 3012 3011 3010 3009 3008 3008 3007 3007 3007 3007 3006 3006 3006 3005 3005 3005 3005 3005 3005 3004 3004 3004 3004 3004 3004 3004 3004 3005 3005 3006 3006 3007 3009 3010 3011 3012 3013 3014 3015 3016 3017 3017 3018 3019 3021 3022 3024 3025 3027 3028 3029 3031 3032 3033 3034 3035 3036 3037 3038 3039 3040 3040 3041 3042 3043 3044 3044
3027 3026 3026 3025 3024 3023 3022 3022 3021 3020 3019 3019 3018 3018 3017 3017 3016 3015 3015 3014 3013 3012 3011 3011 3010 3009 3008 3008 3008 3008 3007 3007 3007 3007 3007 3007 3006 3006 3006 3006 3006 3006 3006 3006 3005 3005 3005 3005 3006 3006 3006 3007 3008 3008 3009 3010 3011 3012 3013 3014 3015 3016 3017 3018 3019 3020 3021 3023 3024 3025 3026 3027 3028 3029 3030 3031 3032 3033 3034 3035 3036 3037 3038 3039 3040 3041 3042